Tracking 19164 objects as of 21-May-2018
HD Live streaming from Space Station
objects crossing your sky now

COSMOS 2251 DEB

Track COSMOS 2251 DEB now!
10-day predictions


NORAD ID: 38196
Int'l Code: 1993-036BSL
Perigee: 617.5 km
Apogee: 903.2 km
Inclination: 73.9 °
Period: 99.9 minutes
Semi major axis: 7131 km
RCS: 0.0033 m2 (small)
Launch date: June 16, 1993
Source: Commonwealth of Independent States (former USSR) (CIS)
Launch site: PLESETSK MISSILE AND SPACE COMPLEX (PKMTR)

Note: This is SATELLITE DEBRIS
aabbcc
Your satellite tracking list
Your tracking list is empty




NASA's NSSDC Master Catalog

Two Line Element Set (TLE):
1 38196U 93036BSL 18138.92806653 +.00001618 +00000-0 +39878-3 0  9992
2 38196 073.8914 343.7688 0200315 024.9023 336.1634 14.41604003253291
Source of the keplerian elements: AFSPC